Wind_Speed
8 7 7 5 3 2 2 3 6 7 5 3 4 5 4 3 2 2 2 3 4 4 4 4 4 4 5 6 8 8 9 10 10 10 9 8 8 8 10 10 10 10 10 11 12 13 14 13 13 13 14 14 14 14 14 14 15 15 16 16 16 16 17 18 18 19 20 20 20 20 20 20 21 21 21 21 20 21 20 20 20 20 20 19 19
9 8 8 6 3 3 3 3 5 7 7 5 4 5 4 4 3 3 4 4 4 4 3 3 4 4 5 6 8 9 9 10 11 11 10 9 8 8 9 9 10 10 11 11 12 13 13 13 13 13 13 13 14 14 13 13 14 14 15 15 15 15 15 16 16 17 18 18 18 19 18 19 19 18 18 18 18 18 18 18 18 18 18 18 18
10 9 9 7 5 5 5 5 5 6 6 5 5 5 4 5 4 4 4 5 5 3 2 3 4 4 5 7 8 8 9 10 11 11 10 9 8 8 8 8 9 10 11 11 12 12 13 13 13 12 13 13 13 13 13 13 13 13 14 14 14 14 14 15 15 16 16 17 17 17 17 17 17 16 16 15 15 15 15 15 15 15 15 15 15
10 10 10 8 7 7 7 6 6 6 6 6 5 5 5 5 5 5 5 5 4 3 2 3 4 4 5 7 8 8 9 10 11 11 10 9 9 8 8 8 10 11 11 11 12 12 13 13 13 12 12 12 13 13 13 12 12 13 13 13 14 14 14 14 14 15 15 16 16 17 17 16 16 15 15 14 14 14 13 13 13 13 13 13 12
8 9 9 8 8 9 9 8 8 7 7 6 6 6 6 6 6 6 5 5 4 3 3 4 5 5 6 8 8 8 9 10 11 11 10 9 8 8 8 9 10 11 11 11 11 12 12 13 12 12 12 12 12 12 12 12 11 12 12 12 13 13 13 13 13 13 14 15 15 16 16 16 15 15 14 14 13 13 13 12 12 12 12 12 11
7 8 8 8 9 10 10 8 8 9 8 7 7 7 7 7 7 7 6 6 5 3 4 5 6 6 7 8 9 8 9 10 11 11 10 9 8 9 9 9 10 10 10 10 11 11 12 12 12 12 11 12 12 12 12 11 11 11 11 11 12 12 12 12 12 12 12 13 13 14 14 15 14 14 14 14 13 13 12 12 12 11 11 11 11
8 8 8 8 10 11 10 9 9 9 9 8 7 7 7 7 8 7 7 6 5 4 5 6 6 6 8 9 8 8 9 10 11 11 10 9 9 9 10 10 9 9 9 9 9 10 11 11 11 11 11 11 11 12 11 11 11 11 11 10 10 11 11 11 11 11 11 11 11 11 12 12 13 13 13 13 13 12 12 12 11 11 11 11 11
8 8 9 9 10 11 10 10 9 9 9 8 8 7 8 8 8 9 8 7 6 5 6 7 6 7 8 8 8 8 9 9 10 10 9 9 9 9 9 9 9 9 8 8 8 8 9 10 11 11 11 11 11 11 11 11 11 11 10 10 10 9 10 10 10 10 10 10 10 10 10 11 11 11 12 12 12 12 12 11 11 11 10 10 10
8 8 9 10 11 12 11 10 10 9 9 8 8 8 8 9 10 10 9 8 6 5 6 6 6 7 8 8 8 8 9 8 8 9 8 8 8 8 8 8 9 8 7 7 7 7 8 9 10 10 10 10 10 10 10 11 10 10 10 10 10 9 9 9 9 9 9 9 9 9 9 10 10 10 11 11 11 11 11 11 10 10 10 9 9
9 9 10 12 12 12 11 10 10 9 9 9 9 9 10 11 11 11 10 8 7 6 6 7 7 8 8 8 9 9 8 8 7 8 8 7 6 7 7 7 7 7 7 6 6 7 7 8 8 9 9 9 10 9 10 10 10 10 10 10 10 9 9 8 8 8 8 8 8 9 9 9 10 10 10 10 10 10 9 9 9 9 8 8 8
10 10 12 13 13 12 11 11 10 10 9 9 10 10 10 11 12 11 10 9 7 6 6 8 10 10 8 8 8 8 8 8 7 7 8 7 5 5 6 6 6 6 6 6 6 7 7 7 8 8 8 8 8 9 9 9 9 9 9 9 10 9 9 9 8 8 8 7 8 8 9 9 9 9 9 9 9 9 8 8 8 8 8 7 6
10 11 12 13 13 12 12 11 11 11 10 9 9 10 11 11 12 11 10 9 8 7 7 9 11 11 9 8 7 7 7 8 7 7 7 6 4 4 5 5 5 5 5 6 6 6 7 7 7 7 7 7 7 7 7 8 8 8 8 9 9 9 9 9 9 8 8 7 7 7 7 7 7 8 8 8 8 8 7 7 7 7 6 6 5
11 11 12 13 13 13 12 12 12 11 9 9 9 10 11 12 12 12 10 9 8 8 8 8 10 10 10 9 8 6 6 7 7 6 6 4 3 4 5 5 5 5 5 5 6 6 7 7 7 7 6 6 6 6 6 6 6 6 6 6 7 7 7 8 8 9 8 8 7 7 6 6 6 6 6 6 6 6 6 6 6 5 5 4 3
12 12 13 13 14 13 13 12 12 11 10 10 10 11 12 13 13 12 11 9 9 9 8 8 9 9 9 9 9 8 7 8 7 7 5 3 3 4 5 5 6 6 6 6 6 6 7 7 7 8 7 7 6 5 5 5 5 5 4 5 5 5 5 6 7 8 8 8 7 7 7 6 6 5 5 5 5 5 4 4 4 4 4 3 3
13 12 13 14 14 13 13 12 12 12 11 11 11 12 13 14 14 13 12 10 9 8 8 8 8 9 9 10 9 8 8 9 8 7 6 4 4 4 5 5 6 6 6 6 7 7 7 7 7 8 8 7 7 6 5 4 4 4 4 4 4 4 4 4 5 6 7 8 8 7 7 7 7 6 5 5 4 4 4 3 3 3 3 3 4
13 13 13 14 14 13 13 13 13 12 11 10 11 12 13 14 14 14 13 11 10 8 7 7 8 9 9 9 9 8 8 9 8 7 7 6 6 7 6 5 5 5 5 6 6 7 7 7 7 8 8 8 7 7 6 5 5 4 3 3 3 3 3 3 3 4 5 6 7 8 7 8 7 7 6 5 4 4 3 3 2 2 2 3 4
14 14 14 14 14 14 13 13 14 13 11 10 10 11 13 13 14 14 13 11 10 8 7 7 8 9 9 9 9 9 9 8 8 8 7 7 8 8 7 6 5 5 5 5 6 6 6 7 7 7 8 8 8 7 6 6 5 5 4 3 3 3 3 2 2 2 3 5 6 7 8 8 8 8 7 7 6 5 4 3 1 0 2 3 4
15 15 15 15 15 14 14 14 14 14 12 10 10 11 12 13 13 13 13 12 10 9 8 8 9 10 10 10 11 10 9 9 8 8 8 8 8 8 7 6 6 6 6 5 5 5 6 6 6 7 7 8 7 7 6 5 5 5 4 4 3 3 3 3 2 2 3 3 5 6 8 8 8 8 9 8 7 6 5 4 3 3 3 4 5
15 15 15 15 15 15 14 14 14 14 12 11 11 10 11 11 12 13 13 13 12 10 9 9 10 11 12 13 12 11 10 9 9 9 9 9 8 8 7 7 6 6 5 5 5 5 6 6 6 7 7 7 7 6 6 5 5 5 4 4 4 4 3 3 3 2 2 3 4 5 7 8 8 8 8 8 7 7 6 5 5 5 5 6 6
15 16 16 16 16 16 16 15 15 14 13 12 11 10 10 11 11 12 13 14 13 12 10 9 10 11 12 13 13 12 11 11 10 10 10 10 9 8 8 8 7 7 6 6 6 6 6 6 6 6 6 6 6 6 6 5 5 4 4 5 4 4 4 4 4 3 3 4 4 5 6 7 8 8 8 8 8 7 7 7 7 7 7 8 8
16 16 17 17 17 17 16 15 15 14 13 13 12 11 11 11 11 12 13 14 14 14 12 10 10 11 12 13 13 13 13 12 12 11 11 11 10 9 9 9 8 8 7 7 7 7 7 7 7 7 6 6 6 6 6 5 5 5 5 5 5 5 5 5 5 5 4 5 5 5 6 7 7 7 7 7 7 8 8 8 8 8 8 9 8
17 17 17 18 18 18 17 16 16 15 15 14 14 13 12 12 12 11 12 13 14 14 13 12 12 12 12 13 14 14 14 13 13 12 13 13 12 11 10 9 9 8 8 7 7 8 8 8 8 8 7 7 7 6 6 6 6 6 6 6 6 6 6 6 6 5 5 5 6 6 6 6 7 7 7 7 7 7 8 8 8 8 8 8 8
18 18 18 18 18 19 18 17 16 16 17 16 16 15 14 13 12 12 12 13 14 15 14 14 14 14 14 13 14 14 15 14 14 13 13 13 13 12 11 11 10 8 8 8 8 8 8 9 9 9 8 8 8 7 7 6 6 6 6 6 6 6 6 6 6 6 5 5 5 5 5 5 5 6 6 6 7 7 7 7 8 8 8 8 7
18 19 19 19 19 20 20 19 18 18 19 19 17 16 15 14 13 13 13 14 14 15 16 16 16 16 15 14 14 14 15 15 15 14 13 13 13 13 13 12 11 10 9 9 9 9 9 9 10 10 9 9 8 8 7 6 6 5 5 5 5 6 6 5 5 5 4 4 4 4 4 4 4 4 5 6 6 7 7 8 8 8 8 8 8
19 20 20 20 21 21 21 21 21 20 20 20 18 17 16 16 15 14 14 14 15 15 16 18 17 17 16 15 15 15 14 14 15 14 14 13 12 12 13 13 12 11 10 10 10 9 9 9 10 10 9 9 9 8 7 6 6 5 5 5 5 5 5 4 3 3 3 3 3 3 3 4 4 5 6 6 7 7 8 8 8 8 9 9 9
19 20 20 21 22 22 21 22 21 21 21 20 19 18 18 17 16 16 15 15 15 15 16 18 19 18 17 17 17 16 15 15 15 15 15 14 13 13 13 13 13 12 11 11 11 10 10 10 10 9 8 8 9 9 8 7 6 5 5 5 5 5 4 4 3 2 3 3 4 4 5 5 5 6 7 7 8 8 8 8 9 9 10 10 10
21 20 20 21 22 22 21 22 22 22 22 21 20 20 19 19 18 17 16 16 16 16 17 18 19 19 19 19 19 18 17 17 16 16 16 15 14 14 14 14 14 14 13 12 12 11 11 10 9 9 8 8 8 7 6 6 6 5 5 5 5 5 5 4 4 4 4 5 5 6 6 7 7 8 8 9 9 9 10 10 10 10 11 11 11
22 21 21 22 22 22 22 22 22 23 23 22 22 21 21 20 20 19 18 18 18 18 18 19 19 20 20 20 20 19 19 18 17 17 17 17 16 16 15 14 14 14 14 13 13 12 11 10 10 10 9 9 8 7 6 5 5 5 6 6 6 6 5 5 5 5 6 6 7 7 8 8 9 9 10 10 11 11 11 11 11 11 11 12 12
22 22 23 23 23 23 23 23 23 23 24 24 23 23 22 22 21 21 20 20 20 19 19 19 20 20 20 20 21 21 20 20 19 19 19 18 18 17 16 15 15 15 15 14 13 13 12 12 11 11 11 10 9 8 7 6 6 6 6 7 6 6 6 6 6 6 7 7 8 8 9 9 10 10 11 12 12 12 12 12 12 12 13 13 14
23 23 24 24 24 24 24 24 24 24 24 25 25 24 24 23 23 23 22 21 21 21 21 21 21 20 20 20 21 22 22 22 22 21 21 20 20 19 17 17 17 16 15 15 15 14 13 12 12 12 11 10 10 9 8 8 8 8 7 7 7 6 6 7 7 8 8 8 9 9 9 10 11 11 12 13 13 14 14 14 14 14 15 15 16
24 24 24 24 25 25 26 25 25 25 25 25 25 25 25 25 25 25 24 23 23 24 23 23 22 21 21 21 22 23 23 23 24 23 22 22 22 20 19 19 18 17 16 16 16 16 14 13 13 13 12 11 10 10 10 10 10 9 9 9 8 8 8 8 9 9 10 10 10 10 11 12 12 13 14 14 15 16 16 16 16 17 17 18 18
25 25 25 24 24 25 26 26 26 26 26 26 26 26 26 26 26 26 26 25 25 26 25 25 24 23 22 22 23 24 24 24 25 25 24 24 23 22 21 20 20 19 18 18 17 16 15 15 15 14 13 12 12 12 11 11 11 11 11 11 11 10 10 10 11 11 12 12 12 12 13 14 15 15 16 16 17 17 18 18 19 19 19 20 20
27 27 27 27 26 25 26 26 27 27 27 26 27 27 27 27 27 27 27 26 27 28 27 26 26 25 24 24 25 25 24 24 25 25 25 25 25 23 23 22 21 21 21 20 19 17 16 16 16 15 15 14 13 13 13 13 13 13 13 13 13 13 12 12 13 13 13 14 14 14 15 16 17 18 18 19 19 20 20 21 21 21 21 22 22
28 28 28 27 26 27 27 28 27 27 28 27 27 27 27 28 28 28 28 28 28 29 28 28 27 27 27 27 27 27 26 26 26 26 26 26 26 25 25 24 23 23 22 22 21 20 19 19 18 17 17 16 15 15 15 14 14 15 15 15 15 15 14 14 15 15 15 16 16 17 18 19 19 20 21 21 22 22 22 23 23 23 24 24 24
28 28 27 27 28 29 29 28 27 27 27 27 27 27 27 28 29 29 30 29 29 29 29 29 29 29 29 29 29 29 28 27 27 27 27 27 26 26 27 26 26 25 25 24 23 23 22 21 20 19 19 18 17 17 17 17 17 17 18 17 17 17 17 17 17 17 17 18 19 20 20 21 21 22 23 23 23 24 24 24 25 25 25 25 25
26 26 27 28 30 30 30 30 29 28 28 28 28 27 27 28 29 30 31 31 31 31 30 31 31 30 30 31 31 32 30 29 29 29 29 28 28 28 28 28 28 27 27 27 26 25 24 23 23 22 21 20 20 19 19 19 19 19 19 19 19 19 19 19 19 19 20 20 21 22 22 23 23 23 24 24 24 25 25 25 26 26 26 26 26
25 26 28 29 30 30 30 31 30 30 30 30 30 29 29 29 30 31 32 32 32 32 32 32 33 32 32 32 33 34 32 31 30 31 30 30 29 29 29 29 30 29 29 28 28 27 26 25 25 24 23 23 22 22 21 21 20 20 20 21 21 22 22 22 21 21 21 22 22 23 24 24 24 24 24 24 24 25 26 26 26 27 27 27 28
23 26 28 29 29 30 31 30 30 30 30 31 31 31 31 31 31 32 33 33 32 32 33 34 34 34 33 33 34 34 33 32 31 32 32 32 31 30 30 31 31 31 30 29 29 29 27 27 27 27 26 25 25 24 23 22 22 22 22 22 23 24 24 23 22 22 23 23 23 24 24 24 24 24 25 25 25 26 27 27 27 28 28 29 29
22 24 26 27 28 29 30 29 29 29 30 30 31 32 33 33 33 34 34 34 34 33 33 34 35 35 35 34 35 35 34 33 32 33 34 33 33 32 32 32 33 32 31 30 30 29 29 29 29 28 28 27 26 26 25 24 23 23 23 24 24 24 24 23 22 23 23 23 23 23 24 24 25 25 26 27 27 28 28 29 29 30 31 31 30
21 22 24 24 25 26 27 28 29 29 30 31 32 33 34 35 36 37 37 36 35 34 34 34 34 35 35 35 35 36 36 35 34 34 35 35 35 34 34 34 34 33 32 31 31 30 30 30 30 30 29 28 27 26 26 25 25 25 26 26 25 25 25 24 24 24 23 23 23 24 25 26 26 27 28 29 30 30 31 31 31 32 32 32 32
19 20 21 22 23 24 25 26 28 29 30 31 32 33 35 37 39 39 36 35 36 35 35 34 34 35 35 35 36 36 37 37 37 36 36 36 36 36 36 36 36 35 34 34 33 32 32 31 31 31 30 28 28 28 27 27 27 28 28 27 26 27 27 26 25 25 24 24 25 26 27 28 28 29 30 31 32 33 33 34 34 34 34 34 34
18 18 20 21 22 23 25 26 26 28 29 31 32 33 36 39 39 36 34 35 37 36 35 35 35 35 35 36 36 36 37 38 39 38 38 38 38 37 38 38 37 37 36 36 35 34 34 33 32 32 31 30 30 30 29 29 30 30 30 30 29 29 28 27 27 26 26 26 26 27 29 30 30 31 32 32 34 35 35 35 36 36 36 36 36
19 19 20 21 22 23 24 25 26 27 29 31 32 33 36 37 36 33 34 36 37 37 37 36 36 36 37 37 37 38 38 39 39 40 40 40 39 39 39 39 39 39 38 37 36 36 35 34 34 34 33 32 32 32 31 31 32 32 32 32 31 30 29 28 28 27 28 29 29 29 30 31 32 33 33 34 35 36 36 37 37 37 38 37 37
19 20 21 22 22 23 24 25 27 28 30 32 33 34 35 36 34 34 36 37 37 38 39 38 38 38 38 39 40 40 40 40 40 41 41 41 41 40 40 40 40 40 40 38 38 37 37 36 36 35 34 33 33 34 34 34 34 35 34 34 32 31 30 29 28 28 29 31 32 31 31 33 34 34 34 36 37 38 38 38 38 38 38 38 38
18 19 20 21 22 23 24 25 26 28 30 32 33 34 35 36 35 35 36 38 38 38 40 40 40 39 40 40 41 41 41 42 42 43 43 43 43 42 42 42 41 41 41 40 39 38 38 38 37 36 35 34 35 35 36 36 36 36 35 34 33 32 31 30 30 31 32 34 34 33 33 34 35 35 35 37 39 39 39 39 40 39 39 39 38
18 18 19 19 20 21 22 24 25 26 28 30 32 33 34 35 35 35 36 38 38 38 40 41 41 41 41 42 42 42 42 43 43 44 44 44 44 44 44 43 42 41 41 41 40 39 38 38 38 37 37 37 36 37 39 39 37 36 35 34 33 32 32 32 32 33 34 34 35 35 33 34 36 36 35 38 40 40 41 41 41 40 40 40 39
19 19 19 19 19 20 20 22 23 25 27 29 30 31 32 33 34 34 35 37 37 37 39 41 42 42 42 43 43 43 43 44 44 45 46 46 46 46 46 45 43 42 42 41 41 41 40 39 38 38 39 39 39 39 41 40 38 37 36 34 33 33 33 34 34 34 35 36 37 37 34 34 36 36 36 39 40 40 41 42 42 41 41 41 41
20 20 20 19 19 20 20 21 22 23 26 27 29 30 31 32 33 34 35 36 36 36 37 39 42 43 44 44 44 44 44 44 45 46 47 48 48 48 48 47 46 44 43 42 42 42 42 41 39 39 39 40 40 40 41 41 40 39 38 36 35 35 36 36 36 36 37 38 39 38 35 34 37 38 37 39 40 40 42 43 43 43 43 43 42
21 21 20 20 20 20 21 22 22 23 25 27 28 30 31 32 33 33 34 35 35 35 36 37 40 41 43 44 45 46 46 45 45 46 48 49 49 49 48 48 48 46 44 43 43 43 42 42 41 40 39 40 40 41 42 42 41 40 39 37 37 38 39 38 38 38 39 40 40 39 36 36 39 40 39 39 40 40 41 43 44 45 45 44 42
21 21 21 20 21 21 22 23 23 23 25 27 28 29 30 31 32 32 33 34 35 35 35 36 38 39 41 42 44 46 46 45 46 47 48 49 50 49 48 49 49 48 45 44 45 44 43 43 42 41 40 40 41 42 43 42 42 41 39 39 40 41 41 40 40 40 40 39 40 41 39 38 40 42 40 39 39 39 41 42 44 45 45 43 41
22 22 22 22 21 21 22 23 23 24 25 27 28 28 29 30 30 31 32 33 33 34 34 35 36 37 38 39 41 43 44 43 45 47 48 49 50 49 49 50 51 49 46 46 48 48 46 44 44 43 42 42 42 43 43 42 42 41 41 41 42 43 42 42 41 41 39 38 40 42 41 40 41 42 41 39 37 37 39 41 43 44 44 41 39
Wind_Direction
242 238 240 239 230 200 196 133 156 182 171 163 164 129 122 143 155 145 126 108 88 67 61 76 82 73 70 76 77 73 71 74 76 74 76 85 93 100 103 105 106 105 106 107 110 112 114 118 120 119 117 117 118 119 119 118 116 116 116 115 114 111 108 105 103 101 101 100 101 101 102 102 102 102 101 101 101 101 101 102 102 103 103 104 104
240 232 231 222 203 180 172 130 136 171 178 172 161 131 133 155 154 145 130 119 109 88 74 92 91 79 76 79 79 78 78 81 82 80 82 87 93 100 105 109 110 108 109 110 112 114 116 118 121 120 118 118 119 120 120 119 118 117 118 119 118 115 111 108 106 104 104 103 103 103 104 104 105 105 104 103 103 102 102 101 102 101 102 102 103
227 219 222 210 190 180 169 148 133 140 153 160 154 143 151 157 151 145 129 126 126 105 94 111 102 91 87 83 82 83 86 87 87 86 87 91 96 102 109 113 114 113 112 114 116 117 118 120 121 120 118 118 120 122 123 123 122 121 121 122 121 119 116 112 110 109 108 107 106 106 105 105 105 105 105 105 105 104 103 102 102 101 101 101 101
221 206 211 202 182 180 171 158 143 130 135 147 150 152 154 153 153 146 130 130 133 117 113 118 105 104 100 91 88 89 92 92 90 89 88 91 99 105 113 117 118 117 117 118 120 121 121 121 121 121 120 120 120 123 126 128 128 126 124 124 124 123 121 118 115 113 112 112 111 110 109 107 106 105 104 104 103 103 102 103 103 103 103 103 103
221 204 206 197 180 180 176 163 148 137 137 145 149 154 154 154 153 146 136 134 135 127 122 113 105 114 111 98 93 92 93 94 92 90 88 91 98 108 116 119 119 120 121 123 123 123 121 120 121 121 121 121 122 124 127 130 132 131 129 128 127 125 123 121 118 116 115 114 114 113 113 111 110 108 106 104 103 101 101 101 101 101 102 102 102
224 209 204 195 185 182 177 165 151 143 145 149 151 157 158 153 150 147 142 139 136 132 124 115 114 121 111 99 95 94 92 92 91 89 88 91 99 111 117 118 119 120 123 124 124 123 121 120 120 120 121 122 124 125 127 131 134 135 135 132 130 128 125 123 121 119 117 115 114 114 114 114 113 111 110 107 104 102 100 99 98 99 99 99 99
218 209 202 195 190 186 176 165 155 149 149 152 155 159 158 152 150 148 145 143 136 133 128 119 119 120 107 98 99 98 93 89 89 89 90 94 101 111 117 118 118 119 122 123 123 123 122 121 121 121 121 123 125 126 128 132 136 139 140 138 135 132 129 127 126 123 121 118 115 113 112 112 112 111 110 108 105 103 100 99 98 97 96 97 97
204 204 202 194 191 189 177 165 160 154 152 154 157 158 157 155 151 148 147 145 138 142 137 121 117 115 104 102 105 102 97 94 94 93 94 99 105 112 118 120 120 120 121 122 123 125 125 124 123 123 123 124 126 128 130 133 137 140 141 141 140 137 134 131 129 127 126 123 120 117 114 112 111 109 107 106 105 104 102 100 99 98 97 97 96
200 202 201 192 190 190 179 168 162 158 157 157 156 155 157 158 155 149 147 143 142 154 150 131 121 116 111 114 116 109 103 103 104 105 104 106 112 118 122 124 125 124 123 123 126 129 130 128 127 126 126 127 128 129 132 135 137 140 142 143 143 142 140 136 133 131 129 127 125 123 120 117 114 111 108 106 105 104 104 104 103 101 101 100 99
205 200 201 192 188 188 180 171 166 163 164 162 157 155 159 161 157 151 146 144 149 164 167 154 139 128 126 129 125 117 112 113 117 118 116 116 122 127 129 131 131 129 128 128 130 133 135 134 132 130 130 130 131 133 135 137 140 142 144 147 148 149 148 145 141 138 135 134 131 127 125 121 118 113 110 107 105 104 104 105 104 104 103 102 100
212 201 200 192 186 187 182 175 170 168 170 169 161 156 158 161 158 154 151 151 157 165 170 162 149 141 139 134 126 124 125 126 130 129 122 121 130 135 137 141 140 138 137 137 139 140 141 141 139 137 135 135 135 137 140 141 143 145 148 150 153 155 156 156 154 151 147 145 140 134 129 125 121 116 112 109 106 104 102 101 102 102 102 101 98
218 204 199 193 187 186 184 182 176 172 173 168 160 155 157 161 159 157 157 158 161 163 166 161 152 148 145 137 130 135 140 135 136 134 121 120 138 148 148 153 156 154 150 150 149 148 149 149 148 146 143 142 141 142 144 146 147 149 151 153 154 156 158 162 164 164 162 160 153 144 136 131 126 121 116 112 108 105 101 98 98 98 98 98 96
221 210 199 193 191 188 187 189 180 172 171 165 160 158 160 165 163 160 159 162 164 163 169 168 159 153 145 141 146 156 159 148 140 133 117 117 149 161 162 166 170 169 164 163 161 158 159 159 159 157 154 153 151 149 149 149 150 151 152 153 151 151 154 161 168 172 175 174 169 161 153 144 136 130 123 116 109 104 100 96 94 92 90 87 82
222 213 202 195 194 190 189 193 182 171 173 170 168 167 166 170 168 163 162 167 168 167 175 179 175 167 154 154 162 168 173 165 148 134 123 132 176 178 173 176 178 174 169 169 168 166 168 171 169 166 164 164 164 160 158 156 152 150 153 154 151 149 150 156 165 173 180 184 183 176 171 167 159 150 139 127 118 109 103 99 94 87 77 64 50
224 216 206 199 197 192 191 195 185 176 181 178 174 173 171 174 172 168 169 175 177 173 178 186 183 177 171 173 175 173 178 173 155 142 141 162 203 207 191 185 181 173 169 169 169 170 173 177 177 173 171 172 173 171 168 163 152 145 147 149 148 147 150 156 163 171 179 187 191 188 183 182 180 173 162 150 142 134 126 118 106 85 59 40 25
225 217 209 202 200 195 192 195 190 185 186 182 179 177 176 177 175 175 178 183 186 180 181 189 185 178 179 183 181 177 180 176 161 153 156 171 201 213 203 191 182 172 166 164 166 170 173 178 180 179 177 178 179 178 175 169 155 142 138 139 138 140 148 158 165 173 180 185 192 194 191 189 190 188 183 177 176 171 161 151 134 87 37 18 11
222 216 209 203 200 197 194 196 196 192 188 184 184 180 180 182 180 182 186 190 194 187 186 191 185 181 183 185 182 179 179 177 170 166 169 179 195 204 200 188 181 175 169 164 163 166 171 176 179 181 181 184 185 183 182 178 166 153 145 140 138 138 143 154 165 177 187 189 193 196 196 194 194 195 197 198 200 199 196 192 195 292 342 348 349
219 213 208 203 200 198 197 198 199 197 190 185 188 185 183 185 185 187 191 194 200 198 193 191 185 181 186 191 187 181 179 180 180 180 185 189 193 197 193 184 181 178 173 168 162 161 168 172 176 179 184 187 187 184 185 184 175 167 160 157 156 153 150 152 159 172 187 194 196 198 199 199 199 200 204 209 212 217 222 229 247 278 304 319 329
217 211 207 203 201 199 199 200 200 198 193 188 191 192 188 186 188 191 194 198 203 204 202 198 188 181 188 196 192 184 182 183 187 193 197 198 196 196 193 187 186 182 175 174 172 172 177 176 175 179 185 188 185 183 185 184 177 171 170 174 172 168 166 164 166 175 189 193 194 198 200 202 205 206 209 215 221 229 237 248 262 277 291 304 314
217 211 207 204 201 200 200 201 200 197 199 196 192 194 194 191 191 194 198 203 206 205 202 202 194 186 191 195 191 186 186 188 191 198 203 203 200 198 197 193 191 187 181 182 184 184 187 186 182 184 188 190 184 181 183 180 175 172 177 183 182 182 184 187 189 189 192 193 194 197 198 203 209 212 216 222 228 236 245 255 265 276 286 295 302
215 213 209 206 202 201 200 200 199 197 201 203 197 196 197 197 198 200 202 207 211 209 202 198 197 195 194 192 189 189 190 190 192 196 202 205 203 199 200 199 194 191 187 187 190 190 191 191 190 190 193 195 189 182 182 179 173 174 182 187 189 194 198 199 198 193 191 193 194 196 196 201 210 215 221 228 234 242 250 258 266 275 282 288 291
213 213 212 209 204 202 201 200 199 198 201 205 203 200 201 202 203 205 207 209 213 214 206 197 196 201 199 194 193 194 193 194 193 194 199 203 202 198 202 203 197 194 192 192 195 194 194 195 196 195 194 198 197 188 185 183 177 176 181 186 192 198 198 197 195 189 188 191 192 194 196 200 208 215 224 232 240 248 255 263 269 275 281 286 288
214 214 214 212 207 203 202 201 200 200 203 206 205 203 204 206 206 206 210 212 213 214 210 202 198 201 203 201 199 199 200 199 196 196 200 203 202 199 202 204 198 197 199 200 199 198 198 199 200 198 193 197 202 197 190 185 181 177 177 183 188 195 196 191 186 182 182 187 188 191 196 201 209 219 230 240 249 257 264 271 276 281 284 286 288
217 215 214 213 210 207 204 202 202 202 205 208 208 205 206 209 209 208 212 215 214 212 211 208 203 201 204 206 204 204 205 205 202 201 205 208 206 202 204 206 201 200 204 205 203 202 202 204 204 202 196 196 200 200 193 186 182 177 176 180 185 191 192 185 180 175 176 183 186 192 201 211 223 235 245 255 262 268 274 278 282 285 287 289 289
221 220 218 216 214 211 207 204 205 205 207 210 210 208 208 210 212 212 215 219 218 214 213 213 209 204 205 208 209 207 207 210 210 210 212 214 212 208 208 208 204 202 206 208 208 207 209 210 209 206 202 202 203 199 192 186 182 179 177 177 182 187 186 182 178 179 190 206 215 224 230 235 245 252 259 265 270 275 279 282 285 287 289 291 291
223 224 224 223 221 218 213 209 209 210 211 212 211 211 212 213 214 215 218 222 222 219 217 217 214 210 207 210 214 214 213 215 216 216 219 220 217 214 214 212 207 203 205 209 210 210 213 215 214 211 208 213 213 205 194 186 182 181 181 178 181 188 190 191 195 210 234 247 251 253 254 254 258 261 265 269 273 277 279 282 283 286 287 289 290
224 223 226 228 228 225 220 215 212 213 214 213 212 214 215 216 217 218 220 223 223 222 220 219 218 215 212 214 218 221 221 222 221 220 222 223 220 219 219 216 213 209 206 208 210 210 211 214 214 212 212 217 221 215 204 196 191 189 192 193 192 198 205 209 216 232 246 256 263 268 270 272 274 275 276 277 277 277 278 279 281 282 284 286 287
228 225 225 228 230 230 226 221 217 215 216 216 215 215 216 218 220 220 221 222 223 223 222 221 219 217 217 217 220 223 225 226 225 223 223 223 222 223 222 219 218 217 213 210 211 212 213 212 212 212 212 217 221 219 213 211 208 203 207 212 211 211 219 227 235 246 255 261 268 275 279 284 286 287 285 283 281 280 279 279 280 281 283 285 287
231 229 228 228 229 230 229 227 223 220 219 219 218 219 219 219 221 222 222 223 225 225 224 223 222 220 221 222 223 225 226 228 229 226 225 225 224 225 226 224 222 221 220 217 215 216 216 215 215 215 214 215 217 216 215 215 217 217 219 224 227 228 234 241 246 253 260 266 270 274 278 281 283 283 283 282 281 281 280 280 280 281 282 283 284
234 233 231 230 230 230 230 228 227 225 223 223 222 222 223 223 223 224 224 224 226 227 225 225 224 223 223 224 225 227 227 229 231 229 228 229 228 227 227 229 227 224 222 221 219 220 220 220 222 221 219 218 218 217 217 218 221 225 229 231 234 237 242 248 253 256 259 263 265 268 271 272 274 275 275 277 277 278 278 278 279 279 280 282 283
237 237 236 234 233 232 231 230 228 227 227 226 226 225 225 225 226 226 227 226 227 228 227 226 226 225 224 224 225 228 228 230 232 231 231 232 231 230 229 231 232 228 225 224 224 224 224 223 225 226 225 224 224 224 224 223 224 226 231 235 236 238 243 250 255 258 259 260 262 264 267 269 270 271 272 274 275 277 277 277 278 278 280 281 283
235 235 234 233 233 234 234 233 231 230 229 229 228 228 227 227 228 228 229 229 229 231 231 229 228 226 225 224 226 228 229 231 233 233 233 233 233 232 231 232 233 231 229 228 228 228 228 228 228 229 230 231 232 233 232 231 232 232 232 233 235 239 244 250 255 258 260 261 263 266 268 270 272 273 274 275 276 277 278 278 278 279 279 280 282
234 234 233 232 232 233 234 233 231 230 229 230 230 229 228 227 228 229 230 230 231 234 234 233 231 230 228 226 227 229 229 230 233 234 234 234 234 233 233 232 232 232 232 233 234 232 231 233 234 233 234 236 238 240 240 239 240 242 241 239 239 240 244 249 254 257 260 263 266 268 269 270 271 273 274 276 277 278 278 279 279 279 280 280 281
234 234 234 235 235 236 237 237 235 232 229 229 231 232 231 230 229 229 229 230 232 235 236 236 235 233 231 229 230 231 230 230 232 235 236 236 235 234 234 235 235 235 235 235 237 236 235 235 238 239 237 237 239 242 245 246 246 248 248 248 249 249 250 253 255 259 261 263 265 267 268 269 271 273 275 276 277 278 278 278 278 279 280 281 281
234 235 235 236 237 238 239 240 240 240 236 232 231 233 235 236 234 231 229 229 230 233 236 237 238 237 236 234 233 233 232 231 232 234 236 237 236 235 235 235 236 238 238 238 237 238 238 238 238 241 241 240 239 241 245 248 249 250 251 252 255 257 258 260 261 262 264 265 267 268 270 271 272 274 275 276 277 277 277 277 278 279 281 282 282
240 239 238 237 237 239 239 238 239 241 241 238 234 231 232 236 238 237 234 230 229 231 234 236 238 239 239 238 238 237 235 234 234 236 237 236 236 236 236 235 235 237 238 239 238 238 239 240 239 240 242 243 242 242 245 248 250 254 257 259 260 261 261 261 263 264 265 267 268 269 270 270 271 273 274 276 278 279 280 281 282 282 283 284 284
247 245 242 241 241 242 242 240 239 240 240 240 238 235 233 234 236 239 238 235 231 231 232 235 237 238 239 240 241 241 238 237 237 238 239 238 237 236 237 237 237 237 237 238 240 240 239 240 240 240 241 243 245 245 246 249 253 258 261 263 264 263 263 263 264 266 268 268 269 270 272 274 275 277 278 280 281 282 283 283 284 285 286 286 286
247 248 247 245 245 245 245 244 243 243 243 242 241 240 238 238 238 240 240 239 236 234 233 235 237 238 238 239 242 243 242 239 239 240 242 242 240 238 238 239 240 240 239 239 240 241 240 239 240 241 243 245 246 247 248 250 254 257 260 262 262 262 263 264 265 267 268 269 271 274 277 279 281 281 282 283 284 284 284 285 287 288 289 289 290
243 245 247 248 249 249 248 248 246 245 245 245 245 244 242 242 242 242 241 241 239 237 236 236 237 239 239 239 241 243 244 242 240 241 243 244 244 242 240 241 242 242 241 241 241 241 240 240 241 242 244 246 248 249 250 251 253 255 256 257 257 260 261 261 261 263 266 269 272 275 277 278 279 280 281 282 283 284 286 288 289 290 291 292 293
244 245 247 248 250 250 249 247 247 246 245 245 246 246 244 243 242 241 242 242 242 241 239 238 239 240 240 240 240 242 244 244 243 242 243 245 246 245 244 244 244 244 244 243 242 241 241 242 243 244 245 246 248 250 251 251 251 251 252 253 255 257 257 257 258 262 264 268 271 274 275 276 277 279 281 283 285 287 288 289 290 291 291 292 293
249 248 249 249 249 249 248 247 246 246 245 246 248 248 246 244 242 242 243 246 246 245 243 242 242 242 243 243 242 242 243 244 244 243 243 244 245 246 246 246 246 247 246 246 244 243 242 243 244 245 245 245 246 248 250 251 251 251 251 252 253 256 257 258 260 264 267 270 273 275 276 278 281 282 284 286 287 288 289 289 290 290 290 291 291
255 252 251 250 248 248 249 249 248 247 247 248 250 250 248 247 246 246 247 247 247 246 245 245 246 247 247 247 246 245 245 245 245 245 244 244 245 246 247 247 248 248 248 248 247 246 245 245 245 246 246 245 245 247 248 249 250 251 252 251 251 254 259 261 264 267 270 272 274 277 279 281 283 284 285 285 285 285 286 287 287 288 288 288 288
260 259 256 254 252 251 250 251 251 250 250 250 251 251 251 252 252 252 250 248 248 248 247 245 246 247 248 249 249 248 248 248 247 247 246 245 245 246 247 248 249 249 249 249 249 249 248 248 248 248 248 247 248 249 249 250 251 252 253 254 255 257 261 264 266 269 272 273 275 276 277 279 280 281 281 281 281 282 283 283 284 285 286 286 287
264 264 262 260 258 256 254 253 253 252 252 253 253 254 254 255 253 251 250 250 250 251 251 249 247 247 248 249 249 249 250 250 249 249 248 248 247 246 246 247 248 249 249 249 249 249 249 250 250 251 251 250 250 252 252 252 252 254 255 258 260 262 264 265 267 268 269 270 272 273 274 275 276 278 279 281 281 281 282 283 284 285 286 286 287
267 267 266 265 263 262 260 259 258 257 256 256 255 255 255 256 255 253 252 252 252 253 254 254 252 251 250 249 249 249 250 250 250 250 250 250 249 248 247 247 248 249 250 250 250 249 249 250 251 252 253 253 252 254 255 255 254 256 258 260 262 264 265 266 266 264 264 266 269 271 272 274 276 278 280 281 281 282 283 284 285 286 287 287 287
269 269 269 269 268 267 266 265 265 264 263 262 261 260 260 260 260 259 258 258 256 255 255 256 255 254 253 252 251 250 250 250 251 251 250 250 250 250 249 249 249 249 250 251 251 251 250 250 251 252 252 253 253 254 256 258 259 259 261 262 264 266 266 266 265 264 266 268 269 270 271 273 276 278 279 279 281 283 284 284 286 287 288 287 287
268 268 268 269 270 270 270 269 269 268 268 268 268 268 267 266 265 264 263 262 262 260 258 257 257 256 255 254 253 251 250 251 251 251 251 250 249 249 250 250 250 250 250 251 252 252 252 250 250 251 251 252 253 254 256 260 262 263 264 265 266 266 266 266 266 267 269 270 271 272 273 274 276 277 278 279 280 282 282 283 284 286 287 287 286
267 266 267 267 269 269 269 268 267 267 268 268 269 270 270 269 268 267 265 264 264 263 261 259 259 258 256 255 254 253 252 251 251 251 251 250 249 249 249 250 250 250 251 252 253 253 253 252 251 251 252 254 255 256 258 261 263 264 265 266 266 267 267 268 269 270 270 271 273 275 276 277 278 278 277 278 279 280 281 282 282 283 285 286 286
267 267 267 267 267 267 267 266 266 266 267 267 267 268 269 270 270 269 268 267 265 263 261 260 259 259 258 257 256 254 253 252 252 251 250 250 250 249 249 249 250 251 251 252 253 253 254 254 253 252 252 254 256 257 258 260 263 265 267 268 268 268 268 269 270 269 270 272 275 277 279 279 279 278 277 277 279 280 280 279 279 281 284 286 286
267 269 268 267 266 266 266 267 267 267 267 268 268 268 269 270 271 271 270 270 268 266 262 260 259 258 258 258 257 256 254 254 253 252 251 250 250 250 249 248 249 250 251 252 252 252 252 253 253 252 252 252 254 256 257 259 261 263 265 266 266 266 266 267 268 268 270 274 277 279 279 279 278 277 277 277 278 280 280 279 280 282 284 285 286
263 265 266 266 266 265 265 265 265 265 266 268 269 270 271 271 271 272 272 272 271 270 266 262 260 258 257 256 257 257 256 254 253 252 251 251 251 251 250 249 248 249 250 251 251 251 251 251 251 251 250 250 251 253 255 257 258 259 261 262 262 263 264 265 267 270 272 275 277 278 278 277 276 277 278 278 278 279 280 282 283 285 286 286 286
Height
5912 5912 5912 5912 5912 5913 5913 5913 5915 5916 5917 5918 5918 5917 5918 5919 5920 5920 5920 5920 5920 5920 5920 5920 5920 5920 5920 5920 5919 5919 5919 5919 5919 5920 5920 5921 5921 5921 5921 5922 5922 5923 5923 5924 5924 5925 5925 5926 5928 5928 5929 5929 5930 5930 5931 5931 5931 5931 5932 5932 5932 5932 5932 5932 5932 5932 5932 5932 5932 5932 5933 5933 5933 5934 5934 5934 5934 5934 5935 5935 5935 5935 5935 5936 5936
5911 5912 5911 5912 5913 5913 5913 5913 5914 5915 5916 5917 5917 5917 5918 5920 5920 5921 5921 5921 5921 5921 5921 5921 5921 5921 5921 5921 5920 5920 5920 5920 5920 5921 5921 5922 5923 5923 5923 5923 5924 5924 5925 5925 5926 5926 5927 5928 5929 5930 5930 5930 5931 5931 5932 5932 5933 5933 5933 5934 5934 5934 5934 5934 5934 5934 5934 5934 5934 5934 5935 5935 5935 5936 5936 5936 5937 5937 5937 5937 5937 5937 5937 5938 5938
5910 5911 5911 5912 5912 5913 5914 5914 5914 5915 5915 5916 5917 5917 5919 5920 5920 5921 5921 5921 5921 5921 5922 5922 5921 5921 5922 5921 5921 5921 5921 5921 5921 5922 5923 5923 5924 5924 5924 5925 5925 5925 5926 5927 5927 5928 5928 5929 5930 5931 5931 5932 5932 5932 5933 5934 5934 5935 5935 5935 5936 5936 5936 5936 5936 5936 5936 5936 5936 5936 5936 5937 5937 5938 5938 5938 5939 5939 5939 5939 5939 5939 5939 5939 5939
5910 5910 5911 5912 5912 5913 5914 5915 5915 5915 5915 5916 5917 5919 5919 5920 5920 5921 5921 5921 5921 5922 5922 5922 5922 5922 5923 5922 5922 5923 5923 5923 5923 5923 5924 5924 5925 5925 5926 5926 5926 5927 5927 5928 5928 5929 5930 5930 5931 5932 5932 5933 5933 5933 5934 5935 5935 5936 5937 5937 5937 5937 5937 5938 5938 5938 5938 5938 5938 5938 5938 5939 5939 5939 5940 5940 5940 5941 5941 5941 5941 5941 5941 5941 5941
5910 5910 5911 5912 5913 5914 5915 5915 5915 5916 5916 5917 5918 5919 5920 5920 5920 5920 5921 5921 5921 5922 5922 5923 5923 5923 5924 5923 5923 5924 5924 5924 5924 5924 5925 5925 5926 5926 5927 5928 5928 5928 5928 5929 5930 5930 5931 5931 5932 5933 5933 5934 5934 5934 5935 5936 5937 5937 5938 5938 5939 5939 5939 5940 5940 5940 5940 5940 5940 5940 5940 5940 5941 5941 5941 5942 5942 5942 5942 5943 5943 5943 5943 5943 5943
5911 5911 5911 5912 5913 5914 5915 5916 5916 5916 5916 5917 5918 5919 5919 5919 5920 5920 5921 5921 5922 5922 5923 5923 5924 5924 5924 5924 5924 5925 5925 5925 5925 5925 5926 5926 5927 5928 5928 5929 5929 5930 5930 5930 5931 5932 5932 5932 5933 5934 5934 5935 5935 5935 5936 5937 5938 5938 5939 5940 5940 5941 5941 5941 5942 5942 5942 5942 5942 5942 5942 5942 5942 5942 5943 5943 5943 5944 5944 5944 5944 5944 5944 5944 5944
5911 5911 5912 5913 5914 5914 5915 5916 5916 5916 5916 5917 5918 5918 5919 5919 5919 5920 5921 5921 5922 5923 5924 5924 5925 5925 5925 5925 5926 5926 5926 5926 5926 5926 5927 5928 5928 5929 5930 5930 5931 5931 5931 5932 5932 5933 5933 5933 5934 5935 5935 5936 5936 5937 5937 5938 5939 5939 5940 5941 5941 5942 5942 5942 5943 5943 5943 5944 5944 5944 5944 5944 5944 5944 5944 5944 5944 5944 5945 5945 5945 5946 5946 5946 5946
5911 5911 5912 5913 5914 5915 5915 5916 5916 5916 5916 5917 5917 5918 5918 5919 5919 5920 5921 5922 5922 5923 5924 5925 5926 5926 5926 5926 5927 5927 5927 5927 5927 5928 5929 5929 5930 5930 5931 5931 5932 5932 5933 5933 5934 5934 5934 5935 5935 5936 5936 5937 5937 5938 5938 5939 5939 5940 5941 5941 5942 5942 5943 5943 5944 5944 5944 5945 5945 5945 5945 5945 5945 5945 5945 5945 5945 5945 5946 5946 5946 5946 5947 5947 5947
5910 5911 5912 5913 5914 5915 5915 5915 5916 5916 5916 5917 5917 5917 5918 5919 5919 5920 5920 5921 5923 5924 5925 5926 5926 5926 5926 5927 5927 5927 5927 5928 5928 5929 5930 5931 5931 5932 5932 5932 5933 5933 5934 5934 5935 5935 5936 5936 5936 5937 5937 5938 5938 5939 5939 5940 5940 5941 5941 5942 5942 5943 5944 5944 5944 5945 5945 5946 5946 5946 5946 5946 5946 5946 5946 5946 5946 5946 5946 5947 5947 5947 5948 5948 5948
5910 5911 5912 5913 5914 5914 5915 5915 5916 5916 5916 5917 5917 5917 5918 5919 5919 5920 5920 5921 5923 5924 5926 5926 5927 5926 5927 5927 5928 5928 5928 5929 5929 5930 5930 5931 5932 5933 5933 5934 5934 5934 5935 5935 5936 5936 5937 5937 5937 5938 5938 5939 5939 5940 5940 5941 5941 5942 5942 5942 5943 5943 5944 5945 5945 5946 5946 5946 5947 5947 5947 5948 5948 5948 5948 5948 5948 5948 5948 5948 5948 5948 5948 5949 5949
5910 5911 5912 5913 5913 5914 5915 5915 5916 5916 5916 5917 5917 5917 5918 5918 5919 5920 5920 5921 5923 5925 5926 5927 5926 5926 5927 5928 5928 5928 5929 5930 5930 5931 5931 5932 5933 5934 5934 5935 5935 5935 5936 5936 5937 5937 5938 5938 5938 5939 5939 5940 5940 5941 5941 5942 5942 5942 5943 5943 5943 5943 5944 5945 5945 5946 5947 5947 5948 5948 5948 5948 5949 5949 5949 5949 5949 5949 5949 5949 5949 5949 5949 5950 5950
5910 5911 5912 5913 5913 5914 5914 5915 5916 5916 5916 5917 5917 5917 5918 5918 5919 5920 5921 5922 5923 5925 5926 5927 5927 5927 5927 5928 5929 5929 5930 5930 5931 5931 5932 5932 5934 5935 5935 5936 5936 5936 5937 5937 5938 5938 5938 5939 5939 5940 5940 5941 5941 5942 5942 5943 5943 5943 5943 5943 5944 5944 5945 5945 5946 5947 5947 5948 5948 5949 5949 5949 5950 5950 5950 5950 5950 5950 5950 5950 5950 5950 5950 5951 5951
5910 5911 5912 5913 5913 5914 5914 5915 5916 5916 5917 5917 5917 5917 5918 5918 5919 5920 5921 5923 5923 5924 5925 5927 5927 5927 5928 5929 5930 5930 5930 5931 5931 5932 5932 5933 5934 5935 5936 5936 5937 5937 5937 5938 5938 5939 5939 5940 5940 5941 5941 5942 5942 5942 5943 5943 5944 5944 5944 5944 5945 5945 5945 5946 5946 5947 5948 5948 5949 5949 5950 5950 5950 5951 5951 5951 5951 5951 5951 5951 5951 5951 5951 5951 5951
5909 5911 5912 5912 5913 5914 5914 5915 5916 5916 5917 5917 5917 5918 5918 5919 5919 5921 5922 5923 5923 5924 5925 5926 5927 5928 5929 5929 5930 5931 5931 5931 5931 5932 5932 5934 5935 5935 5936 5936 5937 5937 5938 5938 5939 5939 5940 5940 5941 5941 5942 5942 5943 5943 5944 5944 5944 5944 5945 5945 5945 5945 5946 5946 5947 5947 5948 5948 5949 5949 5950 5951 5951 5951 5952 5952 5952 5952 5952 5952 5952 5952 5952 5952 5952
5908 5910 5911 5912 5913 5914 5914 5915 5916 5916 5917 5917 5917 5918 5918 5919 5920 5921 5922 5923 5923 5924 5925 5926 5927 5928 5929 5930 5931 5931 5932 5932 5932 5932 5933 5935 5936 5936 5936 5937 5937 5938 5938 5939 5939 5940 5940 5941 5941 5942 5942 5943 5944 5944 5944 5945 5945 5945 5945 5946 5946 5946 5946 5947 5947 5948 5948 5948 5949 5950 5950 5951 5951 5952 5952 5952 5952 5952 5952 5952 5952 5952 5952 5952 5952
5908 5909 5910 5911 5913 5914 5914 5915 5916 5916 5917 5917 5918 5918 5919 5919 5920 5920 5921 5922 5923 5924 5925 5926 5927 5928 5929 5930 5931 5932 5932 5932 5932 5933 5934 5935 5936 5937 5937 5937 5937 5938 5939 5939 5940 5940 5941 5941 5942 5942 5943 5943 5944 5945 5945 5946 5946 5946 5946 5946 5946 5947 5947 5947 5947 5948 5948 5949 5949 5950 5950 5951 5951 5952 5952 5952 5953 5953 5953 5953 5953 5953 5952 5952 5952
5907 5908 5909 5911 5912 5913 5914 5915 5916 5916 5917 5918 5918 5919 5919 5919 5919 5920 5921 5922 5923 5924 5925 5926 5927 5928 5929 5930 5931 5931 5932 5932 5933 5934 5934 5935 5936 5937 5937 5937 5938 5938 5939 5939 5940 5940 5941 5941 5942 5943 5943 5943 5944 5945 5945 5946 5946 5946 5947 5947 5947 5947 5947 5947 5948 5948 5948 5949 5949 5949 5950 5951 5951 5952 5952 5953 5953 5953 5953 5953 5953 5953 5953 5952 5952
5906 5907 5908 5910 5911 5912 5914 5915 5916 5917 5917 5918 5919 5919 5919 5919 5920 5920 5921 5922 5923 5924 5925 5926 5927 5928 5929 5930 5931 5931 5932 5933 5933 5934 5935 5935 5936 5937 5937 5937 5938 5938 5939 5939 5939 5940 5941 5941 5942 5943 5943 5944 5944 5944 5945 5945 5946 5946 5947 5947 5947 5947 5947 5948 5948 5948 5948 5949 5949 5949 5950 5951 5951 5952 5952 5953 5953 5953 5953 5953 5953 5953 5953 5953 5952
5905 5906 5907 5909 5910 5911 5913 5914 5915 5916 5917 5918 5919 5919 5919 5919 5920 5920 5921 5922 5923 5924 5925 5926 5927 5928 5929 5930 5931 5932 5933 5933 5934 5934 5935 5936 5936 5937 5937 5937 5937 5938 5938 5939 5939 5940 5941 5941 5942 5943 5943 5944 5944 5944 5945 5945 5945 5946 5946 5947 5947 5948 5948 5948 5948 5948 5948 5948 5949 5949 5950 5950 5951 5951 5952 5952 5953 5953 5953 5953 5953 5953 5953 5953 5952
5904 5905 5907 5907 5909 5910 5911 5913 5914 5916 5917 5917 5918 5919 5919 5919 5920 5920 5920 5921 5922 5924 5925 5926 5927 5928 5929 5930 5931 5932 5933 5934 5934 5935 5935 5936 5936 5937 5937 5937 5937 5937 5938 5938 5939 5940 5941 5941 5942 5942 5943 5944 5944 5944 5945 5945 5945 5945 5946 5947 5947 5947 5948 5948 5948 5948 5948 5948 5948 5949 5949 5950 5950 5951 5951 5952 5952 5953 5953 5953 5953 5953 5953 5952 5952
5903 5904 5905 5906 5907 5908 5910 5911 5913 5914 5916 5917 5918 5918 5919 5919 5920 5920 5920 5921 5922 5923 5924 5926 5927 5928 5929 5930 5931 5931 5932 5934 5934 5935 5936 5936 5936 5937 5937 5937 5937 5937 5938 5938 5939 5940 5940 5941 5942 5942 5943 5944 5944 5944 5944 5945 5945 5945 5946 5946 5947 5947 5947 5947 5948 5948 5948 5948 5948 5949 5949 5950 5950 5951 5951 5952 5952 5952 5952 5953 5952 5952 5952 5952 5952
5901 5903 5904 5905 5906 5907 5908 5909 5911 5913 5914 5916 5917 5917 5918 5919 5919 5919 5920 5921 5921 5922 5924 5925 5926 5927 5928 5929 5930 5931 5932 5933 5934 5934 5935 5936 5936 5936 5937 5937 5937 5937 5938 5938 5939 5940 5940 5941 5942 5942 5943 5943 5944 5944 5944 5945 5945 5945 5946 5946 5946 5947 5947 5947 5947 5947 5948 5948 5948 5949 5949 5950 5950 5951 5951 5951 5952 5952 5952 5952 5952 5952 5952 5951 5951
5900 5901 5902 5903 5904 5905 5907 5908 5909 5911 5913 5914 5915 5916 5917 5918 5918 5919 5919 5920 5921 5922 5923 5924 5925 5927 5928 5929 5930 5930 5931 5932 5933 5933 5934 5935 5935 5936 5936 5937 5937 5937 5938 5938 5939 5939 5940 5941 5941 5942 5942 5943 5944 5944 5944 5944 5945 5945 5945 5946 5946 5947 5947 5947 5947 5947 5948 5948 5949 5949 5950 5950 5950 5951 5951 5951 5951 5951 5952 5952 5952 5951 5951 5951 5951
5898 5899 5901 5902 5903 5904 5905 5906 5907 5909 5910 5912 5913 5915 5916 5917 5918 5918 5919 5919 5920 5921 5922 5923 5924 5926 5927 5928 5929 5930 5931 5931 5932 5932 5933 5934 5935 5935 5936 5936 5936 5937 5937 5938 5938 5939 5940 5940 5941 5942 5942 5943 5943 5944 5944 5944 5945 5945 5945 5946 5947 5947 5948 5948 5948 5948 5949 5949 5950 5950 5950 5950 5951 5951 5951 5951 5951 5951 5951 5951 5951 5951 5950 5950 5950
5897 5898 5899 5900 5901 5902 5903 5904 5905 5907 5908 5910 5912 5913 5915 5916 5917 5917 5918 5918 5919 5920 5921 5922 5923 5925 5926 5927 5928 5929 5930 5931 5931 5932 5932 5933 5934 5935 5935 5935 5936 5936 5937 5937 5938 5939 5939 5940 5941 5941 5942 5942 5943 5943 5944 5944 5944 5945 5946 5946 5947 5948 5948 5948 5949 5949 5949 5950 5950 5950 5951 5951 5951 5951 5951 5951 5951 5951 5951 5950 5950 5950 5950 5950 5949
5896 5897 5898 5899 5900 5901 5902 5903 5904 5905 5907 5908 5910 5912 5913 5914 5915 5916 5917 5918 5919 5919 5920 5921 5922 5923 5925 5926 5927 5928 5929 5929 5930 5931 5932 5932 5933 5934 5934 5935 5935 5935 5936 5937 5937 5938 5939 5940 5940 5941 5941 5942 5943 5943 5943 5944 5944 5945 5946 5946 5947 5948 5948 5948 5949 5949 5950 5950 5950 5950 5950 5950 5950 5950 5950 5950 5950 5950 5950 5950 5949 5949 5949 5949 5948
5895 5896 5897 5898 5899 5900 5901 5902 5903 5904 5905 5907 5908 5910 5911 5913 5914 5915 5916 5917 5918 5918 5919 5920 5921 5922 5923 5924 5925 5927 5927 5928 5929 5930 5931 5931 5932 5933 5933 5934 5935 5935 5935 5936 5937 5937 5938 5939 5940 5940 5941 5942 5943 5943 5943 5944 5944 5945 5945 5946 5946 5947 5948 5948 5948 5949 5949 5950 5950 5950 5950 5950 5950 5950 5950 5950 5949 5949 5949 5949 5948 5948 5948 5947 5947
5893 5894 5895 5896 5898 5899 5900 5901 5902 5903 5903 5905 5906 5908 5909 5911 5912 5913 5914 5915 5916 5917 5918 5918 5919 5920 5922 5923 5924 5925 5926 5927 5928 5928 5929 5930 5931 5932 5932 5933 5934 5934 5934 5935 5936 5936 5937 5938 5939 5939 5940 5941 5942 5942 5943 5943 5944 5944 5945 5946 5946 5946 5947 5947 5947 5948 5948 5949 5949 5949 5949 5949 5949 5949 5949 5949 5948 5948 5948 5947 5947 5947 5947 5946 5946
5891 5892 5893 5895 5896 5897 5898 5900 5900 5901 5902 5903 5904 5905 5907 5909 5910 5911 5913 5914 5915 5916 5917 5917 5918 5919 5920 5921 5922 5923 5925 5925 5926 5927 5928 5929 5929 5930 5931 5932 5932 5933 5934 5934 5935 5935 5936 5937 5937 5938 5939 5940 5940 5941 5942 5942 5943 5944 5944 5945 5945 5946 5946 5946 5947 5947 5947 5948 5948 5948 5948 5948 5948 5948 5948 5948 5947 5947 5947 5946 5946 5946 5946 5945 5945
5890 5891 5892 5892 5893 5895 5896 5897 5898 5899 5900 5901 5902 5903 5905 5906 5908 5909 5911 5912 5913 5914 5915 5916 5916 5917 5918 5919 5920 5922 5923 5924 5924 5925 5926 5927 5928 5929 5930 5931 5931 5932 5932 5933 5934 5934 5935 5936 5936 5937 5938 5938 5939 5940 5940 5941 5942 5943 5943 5944 5945 5945 5945 5945 5946 5946 5946 5946 5947 5947 5947 5947 5946 5946 5946 5946 5946 5946 5946 5945 5945 5945 5944 5944 5944
5889 5890 5891 5891 5892 5893 5893 5894 5896 5897 5898 5899 5900 5901 5902 5904 5905 5907 5908 5910 5911 5912 5913 5914 5915 5916 5916 5917 5918 5919 5921 5922 5922 5923 5924 5925 5926 5927 5928 5929 5929 5930 5931 5932 5932 5932 5933 5934 5935 5936 5936 5937 5938 5938 5939 5940 5941 5941 5942 5943 5943 5943 5944 5944 5944 5944 5944 5945 5945 5945 5945 5945 5945 5945 5945 5944 5944 5944 5944 5944 5944 5943 5943 5943 5942
5886 5887 5888 5890 5891 5891 5892 5893 5893 5894 5895 5896 5897 5898 5900 5901 5902 5904 5906 5908 5909 5910 5911 5912 5913 5914 5914 5915 5916 5917 5918 5920 5920 5921 5922 5923 5924 5925 5926 5927 5928 5929 5929 5930 5930 5931 5932 5933 5933 5934 5935 5936 5936 5937 5937 5938 5939 5940 5940 5941 5941 5941 5941 5942 5942 5942 5943 5943 5943 5943 5943 5943 5943 5943 5943 5943 5942 5942 5942 5942 5942 5941 5941 5941 5940
5883 5884 5885 5886 5888 5889 5890 5890 5891 5892 5893 5894 5895 5896 5897 5898 5899 5901 5903 5905 5907 5908 5909 5910 5911 5912 5912 5913 5913 5914 5916 5917 5918 5919 5920 5921 5922 5923 5924 5925 5925 5926 5927 5928 5928 5929 5930 5931 5932 5933 5933 5934 5934 5935 5936 5937 5938 5938 5939 5939 5939 5939 5939 5940 5940 5940 5940 5941 5941 5941 5941 5941 5941 5940 5940 5940 5940 5940 5940 5939 5939 5938 5938 5938 5937
5879 5881 5883 5885 5887 5888 5888 5889 5889 5889 5889 5891 5892 5894 5896 5896 5897 5898 5900 5902 5904 5905 5906 5908 5909 5910 5910 5911 5911 5912 5913 5914 5915 5916 5917 5918 5920 5920 5921 5922 5923 5924 5925 5926 5926 5927 5928 5928 5929 5930 5931 5931 5932 5933 5934 5935 5936 5936 5937 5937 5937 5937 5937 5938 5938 5938 5938 5938 5938 5938 5938 5938 5938 5938 5938 5938 5937 5937 5937 5936 5936 5935 5935 5934 5934
5877 5879 5882 5884 5885 5885 5886 5887 5889 5889 5889 5889 5890 5892 5894 5895 5896 5896 5897 5898 5900 5902 5903 5905 5906 5907 5908 5909 5909 5909 5911 5912 5913 5913 5915 5916 5917 5918 5919 5919 5920 5921 5922 5923 5924 5925 5925 5926 5927 5927 5928 5929 5929 5930 5931 5933 5933 5934 5935 5935 5935 5935 5935 5935 5935 5935 5935 5935 5935 5935 5935 5935 5935 5935 5935 5934 5934 5934 5933 5933 5932 5932 5932 5931 5931
5876 5878 5879 5881 5881 5882 5883 5884 5886 5887 5888 5888 5888 5889 5890 5892 5894 5895 5895 5896 5897 5898 5900 5901 5902 5904 5905 5906 5907 5907 5908 5910 5910 5911 5912 5913 5914 5915 5916 5916 5917 5918 5919 5920 5921 5921 5922 5923 5924 5924 5925 5926 5927 5928 5929 5930 5931 5931 5932 5932 5932 5932 5933 5933 5932 5933 5933 5933 5933 5933 5933 5932 5932 5932 5932 5932 5931 5931 5930 5929 5929 5929 5928 5928 5927
5875 5876 5877 5878 5879 5880 5881 5882 5883 5884 5885 5886 5887 5887 5887 5888 5890 5892 5892 5893 5894 5895 5896 5897 5899 5900 5902 5903 5904 5904 5906 5907 5908 5908 5909 5910 5912 5913 5913 5914 5914 5915 5916 5917 5918 5919 5919 5920 5920 5921 5922 5923 5924 5925 5926 5926 5927 5928 5928 5929 5929 5929 5929 5929 5930 5930 5930 5930 5930 5930 5929 5929 5929 5929 5929 5929 5928 5927 5927 5926 5926 5926 5925 5925 5924
5872 5873 5873 5875 5876 5877 5878 5879 5880 5881 5882 5884 5885 5885 5885 5885 5887 5888 5889 5890 5891 5891 5892 5893 5895 5897 5898 5900 5900 5901 5903 5905 5906 5906 5906 5907 5909 5910 5911 5911 5911 5912 5913 5914 5915 5916 5917 5917 5917 5918 5919 5920 5920 5921 5922 5923 5923 5924 5925 5925 5925 5925 5926 5926 5926 5927 5927 5927 5927 5927 5927 5927 5926 5926 5926 5925 5925 5924 5923 5923 5923 5922 5922 5921 5921
5868 5869 5870 5871 5873 5874 5875 5876 5877 5878 5879 5880 5881 5882 5882 5882 5883 5884 5885 5886 5886 5887 5888 5890 5891 5893 5895 5896 5897 5898 5899 5901 5903 5903 5903 5904 5905 5907 5908 5908 5908 5909 5910 5911 5912 5913 5914 5914 5915 5916 5916 5917 5917 5918 5918 5919 5920 5920 5920 5921 5921 5922 5923 5923 5923 5923 5923 5924 5924 5924 5924 5924 5923 5923 5922 5922 5921 5920 5920 5919 5919 5918 5918 5918 5917
5866 5866 5867 5868 5869 5870 5871 5872 5873 5874 5876 5876 5877 5878 5878 5879 5879 5879 5880 5882 5883 5884 5885 5886 5888 5890 5891 5893 5894 5895 5896 5897 5899 5899 5900 5901 5902 5903 5904 5905 5905 5906 5907 5908 5909 5910 5911 5912 5912 5913 5913 5914 5915 5915 5915 5916 5916 5916 5916 5917 5918 5919 5919 5920 5920 5920 5921 5921 5921 5921 5921 5920 5920 5919 5919 5918 5917 5916 5915 5915 5915 5914 5914 5914 5913
5863 5864 5864 5865 5866 5866 5867 5868 5869 5870 5872 5872 5873 5874 5875 5875 5874 5875 5878 5880 5881 5882 5883 5883 5885 5886 5888 5889 5890 5891 5892 5893 5894 5895 5896 5897 5898 5899 5900 5901 5902 5903 5904 5905 5905 5907 5907 5908 5909 5910 5910 5911 5912 5912 5912 5913 5913 5912 5912 5914 5915 5915 5915 5917 5917 5918 5918 5918 5918 5918 5917 5917 5916 5916 5915 5914 5913 5912 5911 5911 5911 5910 5910 5909 5909
5861 5862 5863 5863 5864 5864 5864 5865 5866 5867 5868 5869 5869 5870 5871 5870 5871 5874 5877 5877 5876 5878 5879 5881 5882 5883 5885 5886 5887 5888 5888 5889 5890 5891 5892 5893 5894 5896 5896 5897 5898 5899 5900 5901 5903 5904 5904 5905 5906 5907 5907 5909 5909 5909 5909 5909 5909 5909 5910 5910 5912 5912 5913 5914 5915 5915 5915 5915 5915 5915 5914 5913 5912 5912 5911 5910 5909 5908 5907 5907 5907 5906 5906 5905 5904
5859 5860 5860 5861 5862 5862 5862 5863 5863 5864 5865 5865 5866 5866 5866 5866 5869 5873 5873 5872 5872 5873 5875 5876 5878 5879 5880 5882 5883 5884 5885 5886 5886 5887 5888 5889 5890 5892 5892 5893 5894 5895 5896 5898 5899 5900 5901 5902 5903 5903 5904 5906 5906 5906 5906 5906 5906 5906 5907 5907 5908 5909 5910 5911 5912 5912 5912 5911 5911 5912 5911 5910 5909 5909 5908 5907 5905 5904 5904 5903 5903 5902 5901 5901 5900
5857 5857 5858 5859 5859 5860 5860 5861 5861 5861 5862 5862 5862 5863 5863 5864 5867 5869 5868 5868 5869 5869 5870 5872 5874 5875 5876 5877 5878 5879 5880 5882 5882 5883 5883 5884 5886 5887 5888 5889 5890 5891 5892 5894 5895 5897 5898 5899 5900 5900 5901 5903 5902 5902 5902 5902 5902 5902 5903 5904 5905 5906 5907 5907 5908 5909 5908 5907 5907 5908 5908 5907 5906 5906 5905 5903 5901 5900 5899 5899 5898 5897 5897 5896 5896
5854 5854 5855 5855 5856 5857 5857 5858 5858 5858 5859 5858 5859 5859 5860 5861 5863 5863 5863 5863 5864 5866 5866 5868 5869 5870 5871 5872 5873 5875 5876 5877 5877 5878 5879 5880 5881 5882 5883 5884 5885 5886 5888 5889 5891 5892 5894 5895 5896 5897 5898 5899 5899 5899 5898 5898 5898 5899 5900 5901 5902 5902 5903 5904 5905 5905 5904 5904 5904 5904 5905 5904 5902 5902 5902 5899 5896 5896 5895 5894 5893 5893 5892 5891 5891
5850 5851 5851 5852 5852 5853 5853 5854 5854 5855 5855 5854 5854 5855 5856 5857 5858 5858 5858 5858 5860 5862 5862 5863 5864 5865 5866 5867 5868 5870 5871 5871 5872 5873 5874 5875 5876 5877 5878 5879 5880 5882 5883 5884 5886 5888 5889 5891 5892 5894 5894 5894 5895 5895 5894 5893 5895 5896 5897 5898 5898 5899 5899 5900 5900 5900 5900 5900 5900 5900 5902 5901 5899 5899 5898 5895 5892 5891 5890 5889 5888 5888 5887 5887 5886
5847 5848 5848 5849 5849 5849 5850 5850 5851 5851 5851 5851 5851 5852 5852 5853 5853 5854 5854 5854 5856 5857 5858 5858 5859 5860 5861 5861 5862 5864 5865 5866 5867 5868 5869 5870 5871 5871 5872 5874 5875 5877 5878 5879 5881 5883 5884 5886 5888 5889 5890 5890 5890 5891 5890 5889 5891 5892 5893 5894 5894 5894 5894 5895 5895 5895 5895 5895 5894 5895 5898 5898 5895 5894 5894 5891 5889 5888 5886 5884 5884 5883 5882 5882 5881
5845 5845 5846 5846 5846 5847 5847 5847 5848 5848 5847 5847 5848 5848 5849 5849 5849 5850 5850 5850 5851 5852 5853 5854 5853 5854 5855 5855 5856 5858 5859 5861 5862 5862 5863 5864 5864 5866 5867 5869 5870 5872 5873 5875 5876 5877 5878 5880 5883 5884 5885 5885 5886 5886 5886 5886 5887 5887 5888 5889 5890 5889 5889 5889 5890 5891 5890 5889 5889 5890 5893 5893 5890 5889 5889 5887 5885 5884 5882 5880 5879 5878 5877 5876 5876
5842 5842 5843 5843 5844 5844 5844 5844 5845 5845 5844 5844 5844 5845 5845 5845 5846 5846 5845 5845 5846 5847 5848 5848 5847 5848 5849 5849 5850 5852 5853 5855 5857 5857 5857 5857 5858 5860 5862 5864 5865 5866 5869 5871 5871 5872 5873 5875 5877 5879 5880 5880 5881 5881 5881 5882 5882 5883 5884 5885 5885 5884 5884 5885 5885 5885 5884 5884 5884 5885 5887 5888 5884 5883 5884 5883 5881 5880 5878 5876 5874 5872 5872 5872 5871
5839 5839 5840 5840 5840 5840 5841 5841 5841 5842 5841 5840 5841 5841 5841 5841 5841 5842 5841 5840 5840 5841 5842 5842 5842 5842 5843 5843 5844 5845 5846 5849 5850 5850 5851 5850 5851 5854 5857 5858 5859 5861 5865 5867 5866 5867 5868 5869 5871 5873 5874 5875 5875 5876 5876 5877 5878 5879 5880 5880 5880 5879 5880 5880 5880 5880 5880 5881 5880 5879 5881 5882 5879 5877 5878 5879 5878 5877 5873 5871 5869 5868 5867 5867 5866
5836 5837 5837 5836 5836 5837 5837 5837 5838 5838 5838 5837 5837 5837 5837 5837 5837 5837 5836 5836 5835 5835 5835 5836 5836 5836 5837 5837 5837 5838 5840 5843 5843 5843 5844 5844 5845 5848 5851 5851 5852 5857 5861 5862 5860 5861 5863 5865 5866 5868 5868 5869 5870 5870 5871 5872 5873 5874 5875 5875 5875 5874 5875 5875 5875 5876 5877 5878 5876 5874 5875 5876 5874 5873 5873 5873 5874 5873 5870 5866 5864 5862 5861 5861 5861